[[{"header":{"parameterUnit":"m.s-1","parameterCategory":1,"la1":30.2991,"la2":30.254,"lo1":-89.0895,"lo2":-89.0444,"dy":0.0017,"dx":0.0017,"nx":28,"ny":28,"refTime":"2024-04-26T21:00:00:Z","depth":0,"parameterNumber":2,"parameterNumberName":"U-component_of_WINDS"},"data":[0,0,0,0,0,0,0,0,0,0,0,0,0,0,0,0,0,0,0,0,0,0,0,0,0,0,0,0,0,0,0,0,0,0,0,0,0,0,0,0,0,0,0,0,0,0,0,0,0,0,0,0,0,0,0,0,0,0,-3.7163,-3.7164,0,-3.7227,-3.7227,-3.7228,-3.7241,-3.724,-3.724,-3.7239,-3.7303,-3.7306,-3.7308,0,0,0,0,0,0,0,0,0,0,0,0,0,-3.7054,-3.7056,-3.7163,-3.7164,-3.7165,-3.7226,-3.7227,-3.7228,-3.7241,-3.724,-3.724,-3.7239,-3.7303,-3.7305,-3.7308,0,0,0,0,0,0,0,0,0,0,0,0,0,-3.7108,-3.7057,-3.7163,-3.7178,-3.718,-3.7226,-3.7227,-3.7228,-3.7241,-3.724,-3.7239,-3.7239,-3.7302,-3.7305,-3.7308,-3.7343,0,0,-3.7318,-3.732,0,0,0,0,0,0,0,0,-3.7105,-3.7112,-3.7175,-3.7177,-3.718,-3.7225,-3.7212,-3.7267,-3.7241,-3.7218,-3.7239,-3.7238,-3.7278,-3.7283,-3.7297,-3.7346,-3.7349,-3.7318,-3.732,-3.7322,-3.7323,0,0,0,0,0,0,0,-3.7101,-3.7109,-3.7188,-3.7176,-3.7179,-3.7183,-3.7189,-3.7223,-3.7251,-3.722,-3.7221,-3.7228,-3.7279,-3.7293,-3.7298,-3.7349,-3.7318,-3.7321,-3.7323,-3.7324,-3.7432,-3.7433,0,0,0,0,0,0,-3.7094,-3.7106,-3.7186,-3.719,-3.714,-3.7185,-3.7193,-3.7211,-3.7251,-3.7256,-3.7229,-3.7229,-3.7288,-3.7294,-3.73,-3.7344,-3.7322,-3.7325,-3.7327,-3.7431,-3.7432,-3.7433,0,0,0,0,0,0,-3.7092,-3.7101,-3.7184,-3.7148,-3.7159,-3.7188,-3.7208,-3.7213,-3.7227,-3.7258,-3.7263,-3.7238,-3.7288,-3.7296,-3.7333,-3.7346,-3.7326,-3.7329,-3.743,-3.7432,-3.7433,-3.7431,0,0,0,0,0,0,-3.7089,-3.7101,-3.7113,-3.7149,-3.7161,-3.7214,-3.7209,-3.7215,-3.7233,-3.7233,-3.7268,-3.7273,-3.7288,-3.7328,-3.7336,-3.735,-3.7332,-3.7429,-3.7431,-3.7433,-3.743,-3.7432,-3.7434,0,0,0,0,0,-3.7085,-3.711,-3.7114,-3.7124,-3.7178,-3.7215,-3.7222,-3.7239,-3.7234,-3.7247,-3.7268,-3.7272,-3.7344,-3.7331,-3.7341,-3.7356,-3.7428,-3.743,-3.7432,-3.7429,-3.7432,-3.7434,0,0,0,0,0,0,-3.7075,-3.7115,-3.712,-3.7157,-3.7183,-3.7217,-3.7234,-3.7241,-3.7268,-3.7268,-3.7288,-3.7295,-3.7331,-3.7348,-3.7333,-3.7393,-3.7386,-3.739,-3.738,-3.7383,-3.7385,-3.738,-3.7334,0,0,0,0,0,-3.7077,-3.7104,-3.7137,-3.7167,-3.718,-3.7205,-3.7222,-3.7233,-3.726,-3.7271,-3.7294,-3.732,-3.7349,-3.7367,-3.7395,-3.7433,-3.7441,-3.7449,-3.7451,-3.7453,-3.7455,-3.7478,-3.7482,-3.744,-3.744,-3.744,0,0,-3.7081,-3.7107,-3.7122,-3.7166,-3.7187,-3.7214,-3.7214,-3.7243,-3.7264,-3.7275,-3.7311,-3.7329,-3.736,-3.7398,-3.7416,-3.7413,-3.7469,-3.7455,-3.7456,-3.7458,-3.748,-3.7484,-3.7488,-3.7442,-3.7441,-3.7441,0,0,-3.7103,-3.7125,-3.7152,-3.7174,-3.7207,-3.7224,-3.7231,-3.7265,-3.7278,-3.7315,-3.7324,-3.735,-3.7399,-3.7421,-3.7439,-3.7472,-3.7477,-3.7481,-3.7491,-3.7513,-3.7516,-3.7519,-3.7531,-3.7535,-3.7484,-3.7484,-3.7484,0,-3.7104,-3.7146,-3.7166,-3.7195,-3.7214,-3.7227,-3.7255,-3.7276,-3.7316,-3.7329,-3.7326,-3.7389,-3.7411,-3.7454,-3.7463,-3.7477,-3.7485,-3.7476,-3.7514,-3.7517,-3.752,-3.7532,-3.7536,-3.7484,-3.7484,-3.7484,-3.7484,0,-3.7146,-3.7175,-3.7194,-3.7233,-3.7254,-3.7283,-3.7307,-3.7327,-3.7337,-3.7355,-3.7393,-3.742,-3.7455,-3.7466,-3.7476,-3.7512,-3.7509,-3.751,-3.7503,-3.7524,-3.7535,-3.754,-3.7485,-3.7484,-3.7484,-3.7484,0,0,-3.7161,-3.7212,-3.7218,-3.7237,-3.7275,-3.7298,-3.7329,-3.7363,-3.7379,-3.7408,-3.7433,-3.7476,-3.7477,-3.7497,-3.751,-3.753,-3.7555,-3.7528,-3.7529,-3.7531,-3.7596,-3.7595,-3.7599,-3.756,-3.7561,-3.7561,-3.7594,0,-3.7187,-3.724,-3.726,-3.7304,-3.7331,-3.7346,-3.7372,-3.7399,-3.7417,-3.7444,-3.7464,-3.7494,-3.7494,-3.7506,-3.7526,-3.7547,-3.7568,-3.7546,-3.7583,-3.7585,-3.7574,-3.7605,-3.7603,-3.7632,-3.7598,-3.7599,-3.76,0,-3.7224,-3.7253,-3.73,-3.7336,-3.7349,-3.7372,-3.7406,-3.7431,-3.7462,-3.7474,-3.7498,-3.751,-3.7543,-3.7536,-3.7582,-3.7566,-3.7584,-3.7597,-3.7599,-3.7601,-3.7592,-3.7608,-3.7642,-3.7646,-3.7607,-3.7606,-3.7606,0,-3.7229,-3.7281,-3.7316,-3.7331,-3.7375,-3.7391,-3.741,-3.744,-3.746,-3.749,-3.7504,-3.7537,-3.7555,-3.7581,-3.7603,-3.7596,-3.7647,-3.7641,-3.7657,-3.7657,-3.7666,-3.7665,-3.7702,-3.7679,-3.7679,-3.7679,-3.7679,0,-3.7256,-3.7284,-3.7319,-3.734,-3.7372,-3.7395,-3.7427,-3.7447,-3.7475,-3.7501,-3.7516,-3.754,-3.7567,-3.7595,-3.7613,-3.7648,-3.7656,-3.7667,-3.7671,-3.7665,-3.7664,-3.7675,-3.7673,-3.768,-3.768,-3.768,-3.7679,0,-3.7266,-3.7291,-3.733,-3.7369,-3.7379,-3.7401,-3.7435,-3.7456,-3.7476,-3.7509,-3.7518,-3.755,-3.7583,-3.7608,-3.7652,-3.7664,-3.7701,-3.7706,-3.7691,-3.7692,-3.7707,-3.7705,-3.7752,-3.7759,-3.7732,-3.7733,-3.7733,0,-3.7281,-3.7303,-3.7344,-3.7363,-3.7382,-3.7412,-3.7433,-3.7457,-3.7478,-3.7517,-3.7534,-3.757,-3.7599,-3.7653,-3.7679,-3.7713,-3.7718,-3.7732,-3.7723,-3.7717,-3.7718,-3.7716,-3.7718,-3.7733,-3.7733,-3.7733,-3.7733,0,-3.7304,-3.7316,-3.7345,-3.7379,-3.7404,-3.7432,-3.746,-3.7475,-3.7505,-3.7528,-3.7563,-3.7586,-3.7631,-3.7666,-3.7703,-3.7723,-3.7733,-3.7737,-3.7742,-3.7735,-3.7725,-3.773,-3.7693,-3.7735,-3.7735,-3.7734,-3.7734,-3.7734,-3.7317,-3.7337,-3.737,-3.7403,-3.7427,-3.7454,-3.7476,-3.75,-3.7529,-3.7568,-3.7581,-3.7618,-3.7651,-3.7702,-3.7722,-3.7752,-3.7751,-3.7759,-3.7761,-3.7762,-3.7762,-3.7722,-3.7759,-3.7759,-3.7759,-3.7759,-3.7759,0,-3.734,-3.7363,-3.7393,-3.7432,-3.7458,-3.7467,-3.7499,-3.752,-3.7552,-3.7582,-3.7611,-3.7652,-3.7687,-3.7717,-3.7753,-3.7771,-3.7777,-3.7779,-3.7778,-3.7782,-3.776,-3.7752,-3.7774,-3.7774,-3.7774,-3.7774,-3.7774,-3.7774,-3.7356,-3.7391,-3.7407,-3.7455,-3.7478,-3.7513,-3.7531,-3.7556,-3.758,-3.7625,-3.7654,-3.7674,-3.7705,-3.7743,-3.7776,-3.7784,-3.7796,-3.7798,-3.7807,-3.7786,-3.7784,-3.7782,-3.7774,-3.7801,-3.7801,-3.7827,-3.7827,-3.7827]},{"header":{"parameterUnit":"m.s-1","parameterCategory":1,"la1":30.2991,"la2":30.254,"lo1":-89.0895,"lo2":-89.0444,"dy":0.0017,"dx":0.0017,"nx":28,"ny":28,"refTime":"2024-04-26T21:00:00:Z","depth":0,"parameterNumber":3,"parameterNumberName":"V-component_of_WINDS"},"data":[0,0,0,0,0,0,0,0,0,0,0,0,0,0,0,0,0,0,0,0,0,0,0,0,0,0,0,0,0,0,0,0,0,0,0,0,0,0,0,0,0,0,0,0,0,0,0,0,0,0,0,0,0,0,0,0,0,0,5.3247,5.3247,0,5.3258,5.3258,5.3258,5.3287,5.3288,5.3289,5.3289,5.3296,5.3295,5.3295,0,0,0,0,0,0,0,0,0,0,0,0,0,5.3248,5.3248,5.3247,5.3247,5.3247,5.3258,5.3258,5.3258,5.3287,5.3288,5.3289,5.329,5.3296,5.3295,5.3295,0,0,0,0,0,0,0,0,0,0,0,0,0,5.3252,5.3248,5.3247,5.3263,5.3265,5.3258,5.3258,5.3258,5.3287,5.3288,5.3289,5.329,5.3296,5.3295,5.3295,5.3272,0,0,5.3293,5.3292,0,0,0,0,0,0,0,0,5.3252,5.3252,5.3261,5.3262,5.3264,5.3273,5.3261,5.3263,5.3287,5.3278,5.3289,5.329,5.3287,5.3287,5.3287,5.3272,5.3272,5.3293,5.3292,5.3292,5.3292,0,0,0,0,0,0,0,5.3252,5.3252,5.3251,5.3261,5.3263,5.3269,5.3271,5.3261,5.3277,5.3279,5.3281,5.3283,5.3288,5.3287,5.3287,5.3272,5.3293,5.3292,5.3292,5.3291,5.3241,5.324,0,0,0,0,0,0,5.3249,5.3251,5.3251,5.3252,5.326,5.3268,5.327,5.3269,5.3277,5.328,5.3282,5.3284,5.3288,5.3288,5.3287,5.3263,5.3292,5.3291,5.3291,5.3242,5.3241,5.324,0,0,0,0,0,0,5.3249,5.3249,5.325,5.3252,5.3253,5.3267,5.3265,5.3268,5.3268,5.3279,5.3282,5.3279,5.3289,5.3288,5.3276,5.3263,5.3291,5.3291,5.3243,5.3242,5.324,5.3211,0,0,0,0,0,0,5.3249,5.3249,5.3241,5.3252,5.3253,5.324,5.3265,5.3268,5.3267,5.327,5.3277,5.3279,5.3289,5.3277,5.3276,5.3263,5.329,5.3244,5.3243,5.3241,5.3214,5.3209,5.3205,0,0,0,0,0,5.3249,5.3231,5.324,5.324,5.3243,5.3239,5.3239,5.3253,5.3266,5.3258,5.3266,5.3279,5.3265,5.3276,5.3274,5.3261,5.3245,5.3243,5.3241,5.3215,5.321,5.3206,0,0,0,0,0,0,5.3215,5.3232,5.3243,5.3228,5.3232,5.3244,5.3234,5.3247,5.3246,5.3248,5.3264,5.3266,5.3252,5.3255,5.3266,5.324,5.3257,5.3255,5.3238,5.3233,5.3229,5.3229,5.329,0,0,0,0,0,5.3206,5.3203,5.3217,5.3202,5.3204,5.3219,5.3217,5.3228,5.3232,5.3234,5.324,5.3243,5.324,5.3237,5.3234,5.3215,5.3217,5.3205,5.3201,5.3197,5.3195,5.3187,5.3182,5.3233,5.3233,5.3233,0,0,5.3187,5.3196,5.3192,5.3196,5.32,5.3196,5.322,5.3213,5.321,5.3232,5.3222,5.3227,5.3231,5.3216,5.3209,5.3218,5.3182,5.3195,5.3192,5.3191,5.3184,5.3179,5.3175,5.3232,5.3232,5.3232,0,0,5.315,5.3156,5.3146,5.3151,5.3158,5.3168,5.3166,5.3176,5.3181,5.3172,5.3189,5.3185,5.3178,5.3181,5.3181,5.3149,5.3161,5.3147,5.3125,5.3117,5.3113,5.311,5.3099,5.3095,5.3145,5.3144,5.3144,0,5.3125,5.312,5.3138,5.3132,5.3133,5.3155,5.3145,5.3148,5.3153,5.3153,5.3164,5.3158,5.3162,5.3148,5.3141,5.314,5.3138,5.3146,5.3113,5.3109,5.3106,5.3096,5.3092,5.3143,5.3143,5.3143,5.3143,0,5.3089,5.3086,5.3076,5.3084,5.3084,5.3075,5.3091,5.3089,5.31,5.3109,5.31,5.3106,5.3106,5.3104,5.3113,5.3092,5.3098,5.311,5.3128,5.31,5.309,5.3087,5.314,5.3141,5.3142,5.3142,0,0,5.303,5.3049,5.3046,5.305,5.3061,5.3059,5.3051,5.3053,5.3052,5.3055,5.3049,5.3045,5.3057,5.3058,5.3068,5.3061,5.3036,5.3075,5.3075,5.3068,5.3015,5.3006,5.3001,5.3045,5.3044,5.3044,5.3015,0,5.2996,5.2986,5.3003,5.2988,5.2986,5.3008,5.3002,5.3008,5.3017,5.3015,5.3024,5.3021,5.3037,5.3038,5.3032,5.3041,5.3026,5.3043,5.3039,5.3039,5.3038,5.2996,5.2986,5.2958,5.3011,5.3011,5.301,0,5.2954,5.2959,5.2945,5.296,5.2959,5.2953,5.2958,5.2956,5.2963,5.297,5.2973,5.2986,5.298,5.2997,5.2989,5.3,5.3,5.3004,5.3003,5.3004,5.3023,5.2995,5.2949,5.2945,5.3004,5.3005,5.3005,0,5.2914,5.2916,5.2909,5.2912,5.2928,5.2924,5.293,5.2939,5.2939,5.2943,5.2944,5.2945,5.2946,5.2947,5.2961,5.2973,5.2951,5.297,5.2957,5.2956,5.2951,5.2951,5.2905,5.295,5.295,5.295,5.295,0,5.2874,5.2865,5.2891,5.2886,5.2877,5.2897,5.2887,5.2895,5.2903,5.29,5.2919,5.2915,5.2934,5.2933,5.2943,5.2935,5.2935,5.294,5.2943,5.2939,5.2938,5.2939,5.2941,5.2949,5.2949,5.2949,5.295,0,5.2827,5.2844,5.2838,5.2855,5.2859,5.2851,5.2865,5.2862,5.2873,5.2869,5.2869,5.2886,5.2885,5.29,5.2901,5.2908,5.2896,5.2902,5.2894,5.2896,5.2883,5.2884,5.2835,5.283,5.2878,5.2878,5.2877,0,5.2801,5.2795,5.2812,5.2813,5.2819,5.2819,5.2821,5.284,5.2841,5.2851,5.2846,5.2848,5.285,5.2849,5.286,5.2862,5.2868,5.2851,5.2869,5.2865,5.2869,5.287,5.287,5.2847,5.2847,5.2846,5.2846,0,5.2753,5.2763,5.2766,5.2772,5.2775,5.278,5.2786,5.2785,5.2806,5.2806,5.2808,5.281,5.2813,5.2815,5.2819,5.2825,5.2839,5.2841,5.2838,5.2833,5.283,5.2833,5.2885,5.2841,5.2842,5.2842,5.2842,5.2843,5.2717,5.2713,5.2726,5.2729,5.2736,5.2742,5.2741,5.2752,5.2754,5.276,5.2771,5.2771,5.278,5.2788,5.2792,5.2792,5.2801,5.2796,5.2795,5.2794,5.2792,5.283,5.2793,5.2793,5.2793,5.2793,5.2793,0,5.2671,5.2681,5.2684,5.2694,5.2696,5.2711,5.272,5.2721,5.2721,5.2729,5.2732,5.2734,5.2736,5.2749,5.2752,5.275,5.2757,5.275,5.2751,5.2752,5.2784,5.2786,5.2745,5.2745,5.2745,5.2745,5.2745,5.2745,5.2648,5.2643,5.2654,5.2654,5.2664,5.2665,5.2669,5.2675,5.2682,5.2684,5.2687,5.2696,5.2706,5.2711,5.2714,5.2718,5.2718,5.271,5.2716,5.2745,5.2749,5.2754,5.2756,5.271,5.271,5.2684,5.2684,5.2684]}]]